Find Starlink 33733

NORAD ID: 63435 Int'l Des: 2025-069 Owner: SPXS Country: US Constellation: starlink operational
LEOCIRCULAR

当前视图

正在加载3D地球...

About Starlink 33733

Starlink 33733 (NORAD 63435) is a starlink constellation satellite (v2 mini) launched Apr 4, 2025 by SPXS of US. It operates in LEO, CIRCULAR orbit with a mass of 575.00 kg.

关于 Starlink 33733

正在加载描述...

即将过境

Passes for default location (London). Set your location on the main map for personalized predictions.

高度历史

Loading altitude history...

两行轨道根数

1 63435U 25069C 26195.50011944 .00014433 00000-0 43788-3 0 9998
2 63435 53.1573 267.5091 0000927 96.0380 264.0729 15.34370060 72908
Epoch: Jul 14, 2026 • Age: 16 hours

当前状态

高度 468.5 km
远地点 / 近地点 N/A
速度 7.64 km/s
星下点 52.40°N, 15°E
发射日期 Apr 4, 2025
运行时间 1.2 years
类型 internet

技术详情

分类 Payload
质量 575.00 kg
干质量 530.00 kg
总质量 575.00 kg
长度 0.30 m
直径 4.10 m
跨度 29.00 m
形状 Box + pan
制造商 SPXS
平台类型 Starlink V2MO
阶段状态 In Orbit
所有者/国家 SPXS/US

Most Searched